Погода в Новоселках

Россия / Ульяновская область     53°54′25″N   49°46′21″E
В апреле 2022 года жителям России запретили посещать сайт meteo.paraplan.net по решению Генеральной прокуратуры. Аудитория сайта уменьшилась в 10 раз. Владельцы сайта не видят смысла в поддержке погодного сервера в таких условиях. Сайт будет закрыт в октябре.
темп.,
°C
ветер,
м/с
пор.,
м/с
влажн.,
%
обл.,
%
осадки,
мм/ч
давл.,
гПа
погр.,
м
30 сентября, пт
пт3001:00+10в3495100 0.0 1016223
04:00+9в3392100 0.0 1018205
07:00+9в349091 0.0 1020232
10:00+10в338298 0.0 1022371
13:00+12в237484 0.0 1023531
16:00+14в336763 0.0 1023804
19:00+12вюв4677100 0.0 1024234
22:00+9вюв3684100 0.0 1025193
1 октября, сб
сб101:00+8вюв3586100 0.0 1025155
04:00+8вюв3586100 0.0 1025138
07:00+7вюв348694 0.0 102593
10:00+11юв33705 0.0 1025265
13:00+15ююв22605 0.0 1024693
16:00+16ююв335764 0.0 1022937
19:00+13ююв357253 0.0 102275
22:00+12ююв4774100 0.0 1021111
2 октября, вс
вс201:00+11ююв4878100 0.0 1019144
04:00+11ююв4108084 0.0 1018184
07:00+13ююв5127817 0.0 1017271
10:00+16ююв71462100 0.0 1017528
13:00+19ю81356100 0.3 1016944
16:00+16ю61371100 0.6 1015584
19:00+16ю7137093 0.1 1015513
22:00+16ю61480100 0.2 1015451
3 октября, пн
пн301:00+15ю61580100 0.4 1014545
04:00+15ююв51191100 1.6 1014313
07:00+14ююв6128495 0.3 1014348
10:00+16ююв7146462 0.3 1015522
13:00+20ю81344100 0.0 1016966
16:00+20ю81439100 0.0 10171156
19:00+17ююв8154384 0.0 1018718
22:00+16ююв81739100 0.0 1019701
4 октября, вт
вт401:00+15ююв81633100 0.0 1020808
04:00+14ююв71632100 0.0 1021664
07:00+13ююв81632100 0.0 1021579
10:00+14ююв81631100 0.0 1023706
13:00+17ююв81326100 0.0 10231104
16:00+17ю61028100 0.0 10241205
19:00+14ююв4732100 0.0 1025174
22:00+14ююв51130100 0.0 1026401